This demonstration page uses our WeatherBlox Daily Observations layout. Learn more.

36.17497, -115.13722

Hourly Observations for June 8, 2016

Temp ( °F °C ) Dew Point ( °F °C ) Humidity (%) Winds ( mph kmh ) Pressure ( in mb ) Visibility ( mi km ) Precip ( " mm )
12:53 am 00:53 Clear 88 31.1 36 2.2 16 16 NW 3 6 29.69 1006 10 16.0934 0 0
1:53 am 01:53 Clear 85 29.4 37 2.8 18 18 NNW 5 7 29.7 1006 10 16.0934 0 0
2:53 am 02:53 Clear 84 28.9 37 2.8 19 19 N 8 13 29.7 1006 10 16.0934 0 0
3:53 am 03:53 Clear 83 28.3 36 2.2 19 19 N 8 13 29.72 1006 10 16.0934 0 0
4:53 am 04:53 Clear 81 27.2 36 2.2 20 20 NNE 7 11 29.73 1007 10 16.0934 0 0
5:53 am 05:53 Sunny 80 26.7 37 2.8 21 21 N 6 9 29.75 1008 10 16.0934 0 0
6:53 am 06:53 Sunny 85 29.4 40 4.4 20 20 NE 5 7 29.77 1008 10 16.0934 0 0
7:53 am 07:53 Sunny 88 31.1 38 3.3 17 17 E 7 11 29.78 1009 10 16.0934 0 0
8:53 am 08:53 Sunny 90 32.2 38 3.3 16 16 SE 6 9 29.79 1009 10 16.0934 0 0
9:53 am 09:53 Sunny 93 33.9 40 4.4 16 16 VRB 7 11 29.78 1008 10 16.0934 0 0
10:53 am 10:53 Sunny 96 35.6 40 4.4 14 14 SSE 7 11 29.78 1008 10 16.0934 0 0
11:53 am 11:53 Sunny 100 37.8 39 3.9 12 12 SSE 7 11 29.76 1008 10 16.0934 0 0
12:53 pm 12:53 Sunny 103 39.4 40 4.4 11 11 ESE 10 17 29.73 1007 10 16.0934 0 0
1:53 pm 13:53 Sunny 105 40.6 40 4.4 11 11 ESE 7 11 29.71 1006 10 16.0934 0 0
2:53 pm 14:53 Sunny 107 41.7 41 5 11 11 SE 15 24 29.68 1005 10 16.0934 0 0
3:53 pm 15:53 Sunny 106 41.1 36 2.2 9 9 S 16 26 29.66 1005 10 16.0934 0 0
4:53 pm 16:53 Sunny 107 41.7 36 2.2 9 9 WSW 16 26 29.65 1004 10 16.0934 0 0
5:00 pm 17:00 Sunny 106 41 36 2 9 9 SW 17 28 29.47 998 10 16.0934 0 0
5:53 pm 17:53 Sunny 106 41.1 35 1.7 9 9 SSW 12 19 29.64 1004 10 16.0934 0 0
6:53 pm 18:53 Sunny 105 40.6 34 1.1 8 8 SW 16 26 29.63 1004 10 16.0934 0 0
7:53 pm 19:53 Sunny 102 38.9 36 2.2 10 10 SW 14 22 29.64 1004 10 16.0934 0 0
8:53 pm 20:53 Clear 100 37.8 36 2.2 11 11 SW 10 17 29.65 1004 10 16.0934 0 0
9:53 pm 21:53 Clear 97 36.1 38 3.3 13 13 SSW 10 17 29.67 1005 10 16.0934 0 0
10:53 pm 22:53 Clear 95 35 37 2.8 13 13 SSW 13 20 29.67 1005 10 16.0934 0 0
11:53 pm 23:53 Clear 94 34.4 37 2.8 14 14 SW 13 20 29.67 1005 10 16.0934 0 0

Powered by AerisWeather